SALT Weather Reports


time (UTC)temp
C
wind
direction
speed
KPH
gust
KPH
rain 1hr
cm
rain 24hr
cm
rain mn
cm
humidity
%
barometer
mb
20260505153218 11 359 1.6 0.0 0.00 0.00 0.00 51 1015.0
20260505152215 11 359 1.6 0.0 0.00 0.00 0.00 52 1015.0
20260505151213 11 293 3.2 0.0 0.00 0.00 0.00 54 1014.9
20260505150211 10 285 1.6 0.0 0.00 0.00 0.00 55 1014.8
20260505140239 9 316 0.0 0.0 0.00 0.00 0.00 64 1014.4
20260505140153 9 316 0.0 0.0 0.00 0.00 0.00 64 1014.4
20260505130134 8 312 1.6 0.0 0.00 0.00 0.00 65 1013.7
20260505124128 7 301 3.2 0.0 0.00 0.00 0.00 69 1013.5
20260505123124 7 317 0.0 0.0 0.00 0.00 0.00 70 1013.5
20260505122122 7 326 1.6 0.0 0.00 0.00 0.00 71 1013.5
20260505121119 7 4 1.6 0.0 0.00 0.00 0.00 71 1013.4
20260505120116 7 14 0.0 0.0 0.00 0.00 0.00 72 1013.4
20260505115114 7 315 0.0 0.0 0.00 0.00 0.00 71 1013.4
20260505114111 7 335 3.2 0.0 0.00 0.00 0.00 70 1013.4
20260505113107 7 316 4.8 0.0 0.00 0.00 0.00 70 1013.4
20260505112104 7 321 0.0 0.0 0.00 0.00 0.00 71 1013.4
20260505111102 7 331 1.6 0.0 0.00 0.00 0.00 69 1013.3
20260505102130 8 324 8.0 0.0 0.00 0.00 0.00 66 1013.2
20260505102046 8 324 8.0 0.0 0.00 0.00 0.00 66 1013.2
20260505101044 8 316 8.0 0.0 0.00 0.00 0.00 66 1013.1
20260505100040 8 10 6.4 0.0 0.00 0.00 0.00 66 1013.0
20260505095039 8 326 1.6 0.0 0.00 0.00 0.00 65 1013.0
20260505094035 8 342 8.0 0.0 0.00 0.00 0.00 65 1013.0
20260505093031 8 324 0.0 0.0 0.00 0.00 0.00 65 1013.1
20260505092029 8 307 0.0 0.0 0.00 0.00 0.00 64 1013.1
20260505091026 8 300 0.0 0.0 0.00 0.00 0.00 63 1013.1
20260505090023 8 332 0.0 0.0 0.00 0.00 0.00 63 1013.1
20260505085021 9 320 0.0 0.0 0.00 0.00 0.00 62 1013.1
20260505084017 9 305 1.6 0.0 0.00 0.00 0.00 62 1013.3
20260505082010 8 318 6.4 0.0 0.00 0.00 0.00 62 1013.2
20260505081007 9 325 6.4 0.0 0.00 0.00 0.00 61 1013.4
20260505080004 10 316 6.4 0.0 0.00 0.00 0.00 59 1013.2
20260505075001 10 297 0.0 0.0 0.00 0.00 0.00 59 1013.1
20260505073959 10 318 0.0 0.0 0.00 0.00 0.00 59 1013.3
20260505072955 10 312 1.6 0.0 0.00 0.00 0.00 58 1013.2
20260505071952 9 332 1.6 0.0 0.00 0.00 0.00 60 1013.1
20260505070950 10 314 6.4 0.0 0.00 0.00 0.00 59 1013.1
20260505065947 9 322 3.2 0.0 0.00 0.00 0.00 59 1013.1
20260505064944 10 320 4.8 0.0 0.00 0.00 0.00 58 1013.1
20260505063941 10 308 4.8 0.0 0.00 0.00 0.00 58 1013.1
20260505062937 10 313 0.0 0.0 0.00 0.00 0.00 60 1013.1
20260505061934 10 327 1.6 0.0 0.00 0.00 0.00 60 1013.1
20260505060931 10 335 8.0 0.0 0.00 0.00 0.00 61 1013.1
20260505055928 10 336 6.4 0.0 0.00 0.00 0.00 61 1013.1
20260505054927 10 316 11.3 0.0 0.00 0.00 0.00 60 1013.0
20260505053923 10 293 9.7 0.0 0.00 0.00 0.00 62 1013.0
20260505052919 10 322 1.6 0.0 0.00 0.00 0.00 62 1013.1
20260505051916 9 306 1.6 0.0 0.00 0.00 0.00 63 1013.0
20260505050914 10 341 8.0 0.0 0.00 0.00 0.00 62 1013.2
20260505040855 10 326 11.3 0.0 0.00 0.00 0.00 58 1013.0
20260505035853 11 322 11.3 0.0 0.00 0.00 0.00 57 1013.0
20260505034851 11 312 12.9 0.0 0.00 0.00 0.00 56 1012.8
20260505033846 11 326 16.1 0.0 0.00 0.00 0.00 54 1012.7
20260505032842 11 308 16.1 0.0 0.00 0.00 0.00 53 1012.4
20260505031840 12 303 16.1 0.0 0.00 0.00 0.00 52 1012.3
20260505030837 11 322 14.5 0.0 0.00 0.00 0.00 52 1012.1
20260505025835 11 35 8.0 0.0 0.00 0.00 0.00 53 1012.1
20260505024832 11 322 0.0 0.0 0.00 0.00 0.00 52 1012.0
20260505023908 12 328 0.0 0.0 0.00 0.00 0.00 51 1012.0
20260505023829 12 328 0.0 0.0 0.00 0.00 0.00 51 1012.0
20260505022824 12 316 3.2 0.0 0.00 0.00 0.00 50 1011.8
20260505021822 12 318 0.0 0.0 0.00 0.00 0.00 48 1011.7
20260505020820 13 328 0.0 0.0 0.00 0.00 0.00 47 1011.6
20260505015817 13 324 4.8 0.0 0.00 0.00 0.00 46 1011.6
20260505014814 14 345 8.0 0.0 0.00 0.00 0.00 44 1011.6
20260505013811 14 327 6.4 0.0 0.00 0.00 0.00 43 1011.6
20260505012807 14 310 3.2 0.0 0.00 0.00 0.00 43 1011.6
20260505011845 14 330 4.8 0.0 0.00 0.00 0.00 39 1011.7
20260505011804 14 330 4.8 0.0 0.00 0.00 0.00 39 1011.7
20260505010801 15 320 11.3 0.0 0.00 0.00 0.00 39 1011.6
20260505005759 15 319 12.9 0.0 0.00 0.00 0.00 39 1011.6
20260505004756 15 326 9.7 0.0 0.00 0.00 0.00 41 1011.6
20260505003753 15 354 12.9 0.0 0.00 0.00 0.00 40 1011.6
20260505002749 15 10 12.9 0.0 0.00 0.00 0.00 41 1011.6
20260505001746 15 349 9.7 0.0 0.00 0.00 0.00 44 1011.6
20260505000743 15 337 14.5 0.0 0.00 0.00 0.00 45 1011.6
20260504235817 15 316 14.5 0.0 0.00 0.00 0.00 44 1011.7
20260504235741 15 316 14.5 0.0 0.00 0.00 0.00 44 1011.7
20260504234738 16 341 14.5 0.0 0.00 0.00 0.00 42 1011.6
20260504233735 16 305 9.7 0.0 0.00 0.00 0.00 42 1011.6
20260504232731 16 343 14.5 0.0 0.00 0.00 0.00 41 1011.6
20260504231729 15 326 14.5 0.0 0.00 0.00 0.00 41 1011.7
20260504230726 15 328 16.1 0.0 0.00 0.00 0.00 40 1011.8
20260504225723 16 345 3.2 0.0 0.00 0.00 0.00 40 1011.8
20260504224720 17 329 9.7 0.0 0.00 0.00 0.00 41 1011.9
20260504223717 16 354 4.8 0.0 0.00 0.00 0.00 40 1012.1
20260504222713 17 322 4.8 0.0 0.00 0.00 0.00 39 1012.1
20260504221710 16 303 17.7 0.0 0.00 0.00 0.00 38 1012.3
20260504220707 17 318 12.9 0.0 0.00 0.00 0.00 37 1012.4
20260504215704 16 299 6.4 0.0 0.00 0.00 0.00 36 1012.6
20260504214701 16 22 14.5 0.0 0.00 0.00 0.00 38 1012.6
20260504213657 16 302 14.5 0.0 0.00 0.00 0.00 37 1012.6
20260504212654 16 347 9.7 0.0 0.00 0.00 0.00 36 1012.7
20260504211755 16 283 12.9 0.0 0.00 0.00 0.00 35 1012.8
20260504211651 16 283 12.9 0.0 0.00 0.00 0.00 35 1012.8
20260504210725 16 268 8.0 0.0 0.00 0.00 0.00 36 1012.8
20260504210649 16 268 8.0 0.0 0.00 0.00 0.00 36 1012.8
20260504205646 16 305 9.7 0.0 0.00 0.00 0.00 36 1012.9
20260504204643 16 335 12.9 0.0 0.00 0.00 0.00 33 1012.9
20260504203640 16 347 8.0 0.0 0.00 0.00 0.00 30 1012.9
20260504202637 16 328 11.3 0.0 0.00 0.00 0.00 28 1013.0
20260504201634 16 330 14.5 0.0 0.00 0.00 0.00 26 1012.8
20260504200632 16 354 6.4 0.0 0.00 0.00 0.00 30 1012.9
20260504195629 16 318 9.7 0.0 0.00 0.00 0.00 34 1013.0
20260504193621 16 354 12.9 0.0 0.00 0.00 0.00 32 1013.1
20260504192618 16 4 12.9 0.0 0.00 0.00 0.00 37 1013.1
20260504191615 15 335 14.5 0.0 0.00 0.00 0.00 37 1013.2
20260504190614 15 299 8.0 0.0 0.00 0.00 0.00 36 1013.2
20260504185611 15 337 4.8 0.0 0.00 0.00 0.00 36 1013.3
20260504184608 15 21 12.9 0.0 0.00 0.00 0.00 39 1013.2
20260504183604 15 15 4.8 0.0 0.00 0.00 0.00 40 1013.2
20260504182601 15 316 3.2 0.0 0.00 0.00 0.00 38 1013.3
20260504181558 15 12 6.4 0.0 0.00 0.00 0.00 38 1013.3
20260504180555 15 331 8.0 0.0 0.00 0.00 0.00 39 1013.5
20260504175553 15 328 6.4 0.0 0.00 0.00 0.00 41 1013.4
20260504174550 15 354 6.4 0.0 0.00 0.00 0.00 42 1013.4
20260504173545 14 324 8.0 0.0 0.00 0.00 0.00 44 1013.4
20260504172543 14 330 11.3 0.0 0.00 0.00 0.00 43 1013.4
20260504170538 14 339 8.0 0.0 0.00 0.00 0.00 43 1013.3